Howell, MI

10:05 AM EDT on June 29, 2017 (GMT -0400)
Livingston County

Weather History for KOZW - September, 2013

Change the Weather History Date:

Sunday, September 15, 2013

  Actual Average Record
Temperature  
Mean Temperature 54 °F -  
Max Temperature 62 °F 74 °F 84 °F (2004)
Min Temperature 47 °F 52 °F 37 °F (2011)
Degree Days  
Heating Degree Days 10    
Growing Degree Days 4 (Base 50)    
Moisture  
Dew Point 49 °F    
Average Humidity 81    
Maximum Humidity 99    
Minimum Humidity 61    
Precipitation  
Precipitation 0.00 in - - ()
Sea Level Pressure  
Sea Level Pressure 30.10 in    
Wind  
Wind Speed 2 mph (SW)    
Max Wind Speed 9 mph    
Max Gust Speed -    
Visibility 10 miles    
Events Rain    
Averages and records for this station are not official NWS values.
T = Trace of Precipitation, MM = Missing Value Source: NWS Daily Summary

Daily Weather History Graph

Daily Weather History Graph

Search for Another Location

Airport or City:

Trip Planner

Search our weather history database for the weather conditions in past years. The results will help you decide how hot, cold, wet, or windy it might be!

Date:

Astronomy

Sep. 15, 2013 Rise Set
Actual Time 7:15 AM EDT 7:45 PM EDT
Civil Twilight 6:47 AM EDT 8:13 PM EDT
Nautical Twilight 6:14 AM EDT 8:46 PM EDT
Astronomical Twilight 5:39 AM EDT 9:21 PM EDT
Moon 5:15 PM EDT (9/15) 2:48 AM EDT (9/15)
Length of Visible Light 13h 25m
Length of Day
12h 29m
Waxing Gibbous, 82% of the Moon is Illuminated
Sep 15
Waxing Gibbous
Sep 19
Full
Sep 26
Last Quarter
Oct 4
New
Oct 11
First Quarter

Hourly Weather History & Observations

Time (EDT) Temp. Dew Point Humidity Pressure Visibility Wind Dir Wind Speed Gust Speed Precip Events Conditions
12:14 AM 51.1 °F 45.1 °F 80% 30.09 in 10.0 mi Calm Calm - N/A   Clear
12:35 AM 51.3 °F 45.7 °F 81% 30.10 in 10.0 mi Calm Calm - N/A   Clear
12:55 AM 51.4 °F 45.5 °F 80% 30.09 in 10.0 mi Calm Calm - N/A   Clear
1:14 AM 51.3 °F 45.5 °F 81% 30.09 in 10.0 mi Calm Calm - N/A   Clear
1:35 AM 50.7 °F 45.1 °F 81% 30.09 in 10.0 mi Calm Calm - N/A   Clear
1:55 AM 49.6 °F 43.9 °F 81% 30.09 in 10.0 mi Calm Calm - N/A   Clear
2:14 AM 50.2 °F 44.8 °F 82% 30.09 in 10.0 mi Calm Calm - N/A   Clear
2:35 AM 50.0 °F 44.8 °F 82% 30.09 in 10.0 mi Calm Calm - N/A   Clear
2:55 AM 49.1 °F 44.4 °F 84% 30.08 in 10.0 mi Calm Calm - N/A   Clear
3:14 AM 48.7 °F 43.9 °F 83% 30.08 in 10.0 mi Calm Calm - N/A   Clear
3:35 AM 50.9 °F 42.8 °F 74% 30.08 in 10.0 mi South 4.6 mph - N/A   Clear
3:55 AM 49.1 °F 43.5 °F 81% 30.08 in 10.0 mi Calm Calm - N/A   Clear
4:14 AM 50.7 °F 42.3 °F 73% 30.08 in 10.0 mi South 3.5 mph - N/A   Clear
4:35 AM 47.8 °F 43.2 °F 84% 30.08 in 10.0 mi Calm Calm - N/A   Clear
4:55 AM 49.1 °F 43.0 °F 79% 30.08 in 10.0 mi Calm Calm - N/A   Clear
5:14 AM 48.4 °F 43.2 °F 82% 30.09 in 10.0 mi Calm Calm - N/A   Clear
5:35 AM 48.7 °F 43.3 °F 82% 30.09 in 10.0 mi Calm Calm - N/A   Clear
5:54 AM 50.4 °F 43.3 °F 77% 30.09 in 10.0 mi SSW 3.5 mph - N/A   Clear
6:14 AM 51.3 °F 42.8 °F 73% 30.10 in 10.0 mi South 3.5 mph - N/A   Clear
6:35 AM 51.4 °F 42.8 °F 72% 30.10 in 10.0 mi Calm Calm - N/A   Clear
6:54 AM 51.8 °F 42.1 °F 69% 30.10 in 10.0 mi SSW 3.5 mph - N/A   Clear
7:14 AM 51.4 °F 42.8 °F 72% 30.11 in 10.0 mi SSW 4.6 mph - N/A   Clear
7:35 AM 51.8 °F 42.6 °F 71% 30.11 in 10.0 mi SSW 3.5 mph - N/A   Clear
7:54 AM 52.2 °F 42.8 °F 70% 30.11 in 10.0 mi SSW 4.6 mph - N/A   Clear
8:14 AM 53.1 °F 42.6 °F 68% 30.10 in 10.0 mi SSW 4.6 mph - N/A   Clear
8:35 AM 53.6 °F 43.0 °F 67% 30.10 in 10.0 mi SSW 5.8 mph - N/A   Clear
8:54 AM 54.5 °F 43.3 °F 66% 30.10 in 10.0 mi SSW 5.8 mph - N/A   Scattered Clouds
9:14 AM 54.9 °F 44.1 °F 67% 30.09 in 10.0 mi SSW 6.9 mph - N/A   Scattered Clouds
9:35 AM 56.3 °F 44.2 °F 64% 30.08 in 10.0 mi SSW 4.6 mph - N/A   Scattered Clouds
9:54 AM 57.0 °F 44.8 °F 64% 30.08 in 10.0 mi SSW 5.8 mph - N/A   Mostly Cloudy
10:14 AM 58.1 °F 45.3 °F 62% 30.08 in 10.0 mi SSW 8.1 mph - N/A   Mostly Cloudy
10:35 AM 58.6 °F 45.7 °F 62% 30.09 in 10.0 mi SSW 8.1 mph - N/A   Scattered Clouds
10:54 AM 59.2 °F 46.4 °F 63% 30.08 in 10.0 mi SSW 4.6 mph - N/A   Scattered Clouds
11:15 AM 59.2 °F 47.8 °F 66% 30.08 in 10.0 mi SSW 5.8 mph - N/A Rain Light Rain
11:35 AM 59.9 °F 48.7 °F 67% 30.08 in 10.0 mi SSW 4.6 mph - N/A   Light Drizzle
11:54 AM 60.4 °F 49.3 °F 67% 30.09 in 10.0 mi SSW 5.8 mph - N/A   Mostly Cloudy
12:15 PM 61.3 °F 49.5 °F 65% 30.09 in 10.0 mi SW 4.6 mph - N/A   Mostly Cloudy
12:35 PM 62.1 °F 49.5 °F 63% 30.09 in 10.0 mi WSW 6.9 mph - N/A   Mostly Cloudy
12:54 PM 62.2 °F 48.6 °F 61% 30.09 in 10.0 mi WSW 9.2 mph - N/A   Overcast
1:15 PM 62.2 °F 50.0 °F 64% 30.09 in 10.0 mi West 4.6 mph - N/A   Overcast
1:35 PM 61.9 °F 50.2 °F 65% 30.09 in 10.0 mi WSW 5.8 mph - N/A Rain Light Rain
1:54 PM 61.7 °F 50.2 °F 66% 30.09 in 10.0 mi West 8.1 mph - N/A Rain Light Rain
2:15 PM 61.2 °F 50.5 °F 68% 30.08 in 10.0 mi West 4.6 mph - N/A Rain Light Rain
2:35 PM 60.1 °F 53.1 °F 78% 30.08 in 10.0 mi West 4.6 mph - N/A Rain Rain
2:54 PM 59.2 °F 53.8 °F 82% 30.08 in 10.0 mi WNW 3.5 mph - N/A Rain Light Rain
3:14 PM 58.3 °F 53.8 °F 85% 30.09 in 10.0 mi WSW 4.6 mph - N/A Rain Light Rain
3:35 PM 58.1 °F 54.1 °F 87% 30.08 in 10.0 mi West 3.5 mph - N/A Rain Light Rain
3:54 PM 58.1 °F 54.3 °F 87% 30.08 in 10.0 mi Calm Calm - N/A Rain Light Rain
4:14 PM 57.9 °F 54.3 °F 88% 30.08 in 10.0 mi WSW 3.5 mph - N/A Rain Light Rain
4:34 PM 57.7 °F 54.5 °F 89% 30.08 in 10.0 mi West 3.5 mph - N/A Rain Light Rain
4:55 PM 57.6 °F 55.2 °F 92% 30.09 in 7.0 mi Calm Calm - N/A Rain Light Rain
5:15 PM 57.2 °F 54.9 °F 92% 30.09 in 7.0 mi Calm Calm - N/A Rain Light Rain
5:34 PM 57.0 °F 54.7 °F 92% 30.09 in 10.0 mi Calm Calm - N/A   Overcast
5:55 PM 57.2 °F 54.5 °F 91% 30.09 in 10.0 mi Calm Calm - N/A   Overcast
6:15 PM 56.7 °F 53.8 °F 90% 30.10 in 10.0 mi SSW 4.6 mph - N/A   Overcast
6:34 PM 56.5 °F 53.8 °F 91% 30.09 in 10.0 mi SSE 5.8 mph - N/A   Overcast
6:55 PM 56.3 °F 54.0 °F 92% 30.10 in 7.0 mi SSW 3.5 mph - N/A Rain Rain
7:14 PM 56.3 °F 54.7 °F 94% 30.11 in 7.0 mi Calm Calm - N/A Rain Rain
7:34 PM 56.1 °F 54.9 °F 96% 30.10 in 10.0 mi Calm Calm - N/A Rain Light Rain
7:55 PM 55.6 °F 54.7 °F 97% 30.10 in 10.0 mi SSE 3.5 mph - N/A   Overcast
8:14 PM 55.6 °F 54.7 °F 97% 30.10 in 10.0 mi Calm Calm - N/A   Overcast
8:34 PM 55.8 °F 55.0 °F 97% 30.11 in 10.0 mi Calm Calm - N/A   Overcast
8:55 PM 55.4 °F 54.9 °F 98% 30.12 in 7.0 mi Calm Calm - N/A Rain Light Rain
9:14 PM 55.4 °F 55.0 °F 99% 30.11 in 7.0 mi SSE 3.5 mph - N/A Rain Light Rain
9:34 PM 55.6 °F 55.2 °F 99% 30.12 in 10.0 mi Calm Calm - N/A   Overcast
9:55 PM 55.4 °F 55.0 °F 99% 30.12 in 7.0 mi Calm Calm - N/A   Overcast
10:14 PM 55.4 °F 55.0 °F 99% 30.13 in 10.0 mi Calm Calm - N/A   Overcast
10:34 PM 55.4 °F 55.0 °F 99% 30.12 in 10.0 mi Calm Calm - N/A   Overcast
10:55 PM 55.9 °F 55.6 °F 99% 30.12 in 10.0 mi Calm Calm - N/A   Overcast
11:14 PM 54.7 °F 54.1 °F 98% 30.13 in 10.0 mi West 3.5 mph - N/A   Overcast
11:34 PM 54.1 °F 53.6 °F 98% 30.14 in 10.0 mi Calm Calm - N/A   Mostly Cloudy
11:55 PM 54.5 °F 54.0 °F 98% 30.14 in 10.0 mi West 4.6 mph - N/A   Overcast